Location: Hawks Ness
(60.2333°N, 1.1667°W)
Time: 10:55:50
(UTC+00:00)

Cosmos 1726 - Pass Details

Date: 28 January 2020
Orbit: 483 x 500 km, 82.5° (Epoch: 25 February)

Event Time Altitude Azimuth Distance (km) Brightness Sun altitude
Exits shadow 03:42:54 11° 59° (ENE) 1,595 5.4 -34.6°
Drops below altitude 10° 03:43:22 10° 52° (NE) 1,681 5.6 -34.5°
Sets 03:46:21 0° 25° (NNE) 2,567 6.4 -34.2°
